Location: Lancaster
(45.1330°N, 74.5000°W)
Time: 17:36:43
(UTC-04:00)

ISS - Visible Passes

Search period start: 24 March 2019 00:00
Search period end: 03 April 2019 00:00
Orbit: 408 x 411 km, 51.6° (Epoch: 24 March)

Date Brightness Start Highest point End Pass type
(mag) Time Alt. Az. Time Alt. Az. Time Alt. Az.
24 Mar -3.2 20:43:16 10° WSW 20:46:32 56° NNW 20:48:17 24° NE visible
24 Mar -0.3 22:20:45 10° WNW 22:21:04 12° WNW 22:21:04 12° WNW visible
25 Mar -3.8 19:52:32 10° WSW 19:55:51 87° NNW 19:59:10 10° ENE visible
25 Mar -2.0 21:29:49 10° WNW 21:32:44 28° N 21:32:44 28° N visible
26 Mar -2.3 20:38:52 10° W 20:41:56 34° NNW 20:44:17 15° NE visible
26 Mar -0.6 22:16:17 10° NW 22:17:03 15° NW 22:17:03 15° NW visible
27 Mar -2.8 19:47:56 10° W 19:51:09 46° NNW 19:54:21 10° NE visible
27 Mar -2.0 21:25:26 10° WNW 21:28:16 25° N 21:28:30 25° N visible
28 Mar -2.0 20:34:29 10° WNW 20:37:22 27° N 20:39:53 12° NE visible
28 Mar -0.9 22:11:35 10° NW 22:12:39 17° NW 22:12:39 17° NW visible
29 Mar -2.2 21:20:50 10° NW 21:23:43 27° N 21:23:59 26° NNE visible
30 Mar -2.0 20:30:00 10° WNW 20:32:49 25° N 20:35:17 12° ENE visible
30 Mar -1.2 22:06:43 10° NW 22:08:02 21° NW 22:08:02 21° NW visible
31 Mar -2.7 21:16:00 10° NW 21:19:05 35° NNE 21:19:19 34° NNE visible
01 Apr -2.3 20:25:15 10° NW 20:28:12 29° N 20:30:35 13° ENE visible
01 Apr -1.5 22:01:47 10° WNW 22:03:20 26° WNW 22:03:20 26° WNW visible
02 Apr -3.6 21:11:02 10° NW 21:14:19 57° NNE 21:14:37 54° NE visible
